Weather History for Lafayette, IN

Change the Weather History Date:

Monday, November 12, 2012

  Actual Average Record
Temperature  
Mean Temperature 42 °F 45 °F  
Max Temperature 52 °F 53 °F 74 °F (2010)
Min Temperature 31 °F 36 °F 15 °F (1986)
Degree Days  
Heating Degree Days 23 20  
Month to date heating degree days 273 218  
Since 1 July heating degree days 854 652  
Cooling Degree Days 0 0  
Month to date cooling degree days 0 0  
Year to date cooling degree days 1181 982  
Moisture  
Dew Point 33 °F    
Average Humidity 76    
Maximum Humidity 100    
Minimum Humidity 52    
Precipitation  
Precipitation 0.48 in 0.10 in 1.62 in (1992)
Month to date precipitation 0.68 1.11  
Year to date precipitation 27.58 32.21  
Sea Level Pressure  
Sea Level Pressure 30.13 in    
Wind  
Wind Speed 11 mph (WNW)    
Max Wind Speed 22 mph    
Max Gust Speed 29 mph    
Visibility 8 miles    
Events Rain , Snow    
T = Trace of Precipitation, MM = Missing Value Source: NWS Daily Summary

Daily Weather History Graph

Daily Weather History Graph

Search for Another Location

Airport:

Trip Planner

Search our weather history database for the weather conditions in past years. The results will help you decide how hot, cold, wet, or windy it might be!

Date:

Astronomy

Nov. 12, 2012 Rise Set
Actual Time 7:30 AM EST 5:32 PM EST
Civil Twilight 7:01 AM EST 6:01 PM EST
Nautical Twilight 6:29 AM EST 6:34 PM EST
Astronomical Twilight 5:56 AM EST 7:06 PM EST
Moon 5:55 AM EST (11/12) 4:37 PM EST (11/12)
Length of Visible Light 10h 59m
Length of Day
10h 01m
Waning Crescent, 2% of the Moon is Illuminated
Nov 12
Waning Crescent
Nov 13
New
Nov 20
First Quarter
Nov 28
Full
Dec 6
Last Quarter

Hourly Weather History & Observations

Time (EST) Temp. Windchill Dew Point Humidity Pressure Visibility Wind Dir Wind Speed Gust Speed Precip Events Conditions
12:01 AM 51.8 °F - 50.0 °F 94% 29.96 in 7.0 mi WNW 6.9 mph - 0.00 in Rain Light Rain
12:54 AM 51.1 °F - 48.9 °F 92% 29.95 in 6.0 mi Calm Calm - 0.05 in Rain Light Rain
1:46 AM 50.0 °F - 48.2 °F 94% 29.96 in 5.0 mi SW 4.6 mph - 0.11 in Rain Rain
1:54 AM 50.0 °F - 48.9 °F 96% 29.95 in 5.0 mi West 3.5 mph - 0.13 in Rain Rain
2:37 AM 44.6 °F 38.1 °F 42.8 °F 93% 29.98 in 9.0 mi WNW 13.8 mph - 0.08 in Rain Light Rain
2:50 AM 44.6 °F 39.2 °F 42.8 °F 93% 29.99 in 6.0 mi WNW 10.4 mph 19.6 mph 0.10 in Rain Rain
2:54 AM 44.1 °F 39.0 °F 42.1 °F 93% 29.99 in 6.0 mi WNW 9.2 mph 19.6 mph 0.11 in Rain Rain
3:04 AM 42.8 °F 36.2 °F 42.8 °F 100% 29.99 in 10.0 mi NW 12.7 mph - 0.00 in Rain Light Rain
3:54 AM 41.0 °F 33.1 °F 39.9 °F 96% 30.02 in 6.0 mi WNW 15.0 mph - 0.08 in Rain Rain
4:16 AM 39.2 °F 32.5 °F 39.2 °F 100% 30.01 in 8.0 mi WNW 10.4 mph - 0.04 in Rain Light Rain
4:28 AM 39.2 °F 34.2 °F 39.2 °F 100% 29.99 in 10.0 mi NNW 6.9 mph - 0.04 in Rain Light Rain
4:54 AM 37.9 °F 31.5 °F 37.9 °F 100% 30.04 in 10.0 mi WNW 9.2 mph - 0.06 in Rain Light Rain
5:01 AM 37.4 °F 29.3 °F 37.4 °F 100% 30.05 in 10.0 mi WNW 12.7 mph - 0.00 in Rain Light Rain
5:42 AM 37.4 °F 29.8 °F 37.4 °F 100% 30.04 in 10.0 mi WNW 11.5 mph - 0.03 in Rain Light Rain
5:54 AM 37.0 °F 30.4 °F 37.0 °F 100% 30.06 in 10.0 mi West 9.2 mph - 0.03 in   Overcast
6:02 AM 37.4 °F 29.3 °F 35.6 °F 93% 30.05 in 10.0 mi WNW 12.7 mph - 0.00 in Rain Light Rain
6:10 AM 37.4 °F 29.3 °F 35.6 °F 93% 30.05 in 8.0 mi NW 12.7 mph - 0.01 in Rain Light Rain
6:31 AM 35.6 °F 27.5 °F 35.6 °F 100% 30.07 in 8.0 mi West 11.5 mph - 0.02 in   Overcast
6:54 AM 34.0 °F 25.5 °F 34.0 °F 100% 30.08 in 6.0 mi WNW 11.5 mph 20.7 mph 0.02 in Snow Light Snow
7:25 AM 32.0 °F 22.5 °F 32.0 °F 100% 30.10 in 2.0 mi WNW 12.7 mph - 0.00 in Snow Light Snow
7:50 AM 32.0 °F 22.5 °F 32.0 °F 100% 30.12 in 5.0 mi West 12.7 mph - 0.00 in   Overcast
7:54 AM 32.0 °F 22.1 °F 32.0 °F 100% 30.13 in 5.0 mi WNW 13.8 mph - 0.00 in   Overcast
8:54 AM 32.0 °F 22.5 °F 30.9 °F 96% 30.16 in 10.0 mi WNW 12.7 mph - N/A   Overcast
9:46 AM 30.2 °F 18.1 °F 28.4 °F 93% 30.19 in 10.0 mi West 18.4 mph 25.3 mph N/A   Overcast
9:54 AM 32.0 °F 21.2 °F 27.0 °F 82% 30.19 in 10.0 mi West 16.1 mph 25.3 mph N/A   Mostly Cloudy
10:54 AM 33.1 °F 23.0 °F 26.1 °F 75% 30.19 in 10.0 mi West 15.0 mph 24.2 mph N/A   Mostly Cloudy
11:54 AM 35.1 °F 24.8 °F 25.0 °F 67% 30.21 in 10.0 mi West 17.3 mph 24.2 mph N/A   Scattered Clouds
12:54 PM 36.0 °F 25.6 °F 23.0 °F 59% 30.20 in 10.0 mi WNW 18.4 mph 25.3 mph N/A   Clear
1:54 PM 37.0 °F 27.7 °F 23.0 °F 57% 30.21 in 10.0 mi West 16.1 mph 25.3 mph N/A   Partly Cloudy
2:54 PM 37.0 °F 26.7 °F 21.9 °F 54% 30.22 in 10.0 mi West 19.6 mph 28.8 mph N/A   Clear
3:54 PM 36.0 °F 26.0 °F 21.0 °F 55% 30.24 in 10.0 mi West 17.3 mph 25.3 mph N/A   Scattered Clouds
4:54 PM 35.1 °F 26.9 °F 23.0 °F 61% 30.27 in 10.0 mi West 11.5 mph 19.6 mph N/A   Partly Cloudy
5:54 PM 34.0 °F 24.2 °F 21.9 °F 61% 30.29 in 10.0 mi West 15.0 mph 21.9 mph N/A   Partly Cloudy
6:54 PM 32.0 °F 24.2 °F 21.9 °F 66% 30.31 in 10.0 mi West 9.2 mph - N/A   Clear
7:54 PM 30.9 °F 26.2 °F 23.0 °F 72% 30.34 in 10.0 mi West 4.6 mph - N/A   Partly Cloudy
8:54 PM 33.1 °F - 24.1 °F 70% 30.35 in 10.0 mi Calm Calm - N/A   Overcast
9:54 PM 32.0 °F 26.4 °F 24.1 °F 73% 30.37 in 10.0 mi West 5.8 mph - N/A   Mostly Cloudy
10:54 PM 33.1 °F 27.7 °F 25.0 °F 72% 30.38 in 10.0 mi West 5.8 mph - N/A   Overcast
11:54 PM 32.0 °F 25.6 °F 25.0 °F 75% 30.39 in 10.0 mi West 6.9 mph - N/A   Overcast